Precipitable_Water
1.12 1.25 1.34 1.31 1.28 1.33 1.36 1.42 1.44 1.43 1.47 1.49 1.59 1.71 1.66 1.61 1.51 1.38 1.38 1.38 1.36 1.25 1.15 1.07 1.05 1.13 1.21 1.19 1.11 1.23 1.29 1.34 1.38 1.44 1.44 1.44 1.50 1.55 1.57 1.64 1.60 1.55 1.56 1.43 1.42 1.53 1.63 1.59 1.49 1.40 1.42 1.29 1.20 1.13 1.13 1.11 1.13 1.13 1.11 1.11 1.03 0.99 1.00 1.06 1.07 1.09 0.99 0.92 0.93 0.92 0.91 0.98 0.95 0.93 0.94 1.02 1.10 1.14 1.15 1.11 1.12 1.16 1.19 1.17 1.20
1.12 1.14 1.26 1.26 1.22 1.27 1.33 1.38 1.38 1.29 1.34 1.42 1.58 1.71 1.63 1.64 1.49 1.42 1.42 1.35 1.29 1.18 1.09 1.08 1.13 1.14 1.19 1.21 1.23 1.28 1.28 1.30 1.30 1.37 1.39 1.44 1.53 1.52 1.55 1.55 1.56 1.45 1.39 1.34 1.47 1.53 1.49 1.47 1.53 1.41 1.31 1.32 1.36 1.26 1.16 1.15 1.15 1.14 1.14 1.07 1.12 1.03 0.97 1.05 1.08 1.02 0.88 0.77 0.71 0.70 0.80 0.88 0.88 0.92 0.93 0.97 1.01 1.02 1.02 1.03 1.06 1.07 1.10 1.14 1.18
1.02 1.10 1.14 1.19 1.18 1.22 1.33 1.36 1.34 1.30 1.28 1.36 1.57 1.61 1.61 1.55 1.49 1.44 1.40 1.30 1.24 1.21 1.12 1.15 1.22 1.29 1.32 1.30 1.31 1.32 1.41 1.40 1.36 1.38 1.43 1.45 1.43 1.45 1.49 1.52 1.51 1.45 1.43 1.45 1.36 1.44 1.47 1.52 1.47 1.44 1.32 1.32 1.26 1.21 1.14 1.11 1.12 1.10 1.09 1.05 1.11 1.14 1.05 1.08 1.06 1.05 0.84 0.87 0.84 0.70 0.59 0.51 0.69 0.84 0.88 0.92 0.97 1.02 1.06 1.04 1.03 1.04 1.06 1.11 1.15
0.91 0.95 1.02 1.12 1.16 1.21 1.23 1.27 1.32 1.33 1.31 1.35 1.48 1.56 1.58 1.55 1.51 1.45 1.37 1.34 1.30 1.25 1.21 1.30 1.32 1.36 1.42 1.40 1.40 1.38 1.31 1.38 1.41 1.43 1.45 1.42 1.38 1.46 1.51 1.53 1.48 1.41 1.43 1.43 1.38 1.46 1.49 1.42 1.38 1.24 1.23 1.20 1.19 1.13 1.10 1.08 1.08 1.06 1.05 1.04 1.03 0.92 0.94 0.94 1.03 1.03 0.98 0.87 0.63 0.62 0.62 0.59 0.45 0.53 0.60 0.73 0.90 0.95 0.95 0.99 1.06 1.07 1.09 1.12 1.16
0.91 0.96 0.97 1.02 1.10 1.13 1.17 1.22 1.27 1.27 1.30 1.32 1.38 1.45 1.50 1.56 1.54 1.47 1.42 1.38 1.32 1.27 1.29 1.35 1.36 1.37 1.39 1.41 1.42 1.39 1.39 1.36 1.34 1.34 1.37 1.36 1.34 1.39 1.44 1.46 1.42 1.34 1.35 1.34 1.37 1.39 1.38 1.36 1.25 1.17 1.14 1.17 1.14 1.08 1.07 1.04 1.05 1.04 1.02 0.98 0.97 0.89 0.82 0.88 0.94 1.00 0.98 1.03 0.86 0.70 0.63 0.55 0.54 0.64 0.65 0.63 0.79 0.75 0.85 0.93 0.99 1.01 1.03 1.07 1.10
0.88 0.87 0.88 0.93 1.01 1.10 1.16 1.20 1.23 1.28 1.28 1.33 1.37 1.43 1.56 1.56 1.56 1.51 1.46 1.41 1.34 1.34 1.36 1.35 1.34 1.32 1.30 1.26 1.22 1.22 1.19 1.21 1.18 1.19 1.24 1.25 1.24 1.32 1.35 1.36 1.35 1.38 1.38 1.34 1.33 1.33 1.26 1.18 1.13 1.13 1.11 1.09 1.08 1.04 1.02 1.02 0.99 0.96 0.97 0.96 0.92 0.94 0.86 0.81 0.80 0.94 0.96 0.97 0.97 0.94 0.87 0.69 0.66 0.72 0.70 0.51 0.71 0.83 0.83 0.89 0.92 0.95 1.00 1.02 1.05
0.91 0.95 0.96 0.98 1.04 1.09 1.15 1.22 1.31 1.34 1.38 1.47 1.51 1.58 1.56 1.57 1.55 1.52 1.44 1.40 1.40 1.39 1.40 1.37 1.35 1.36 1.33 1.28 1.26 1.22 1.17 1.22 1.29 1.32 1.29 1.33 1.33 1.30 1.35 1.41 1.42 1.41 1.41 1.38 1.25 1.11 1.07 1.08 1.09 1.11 1.11 1.06 1.05 1.00 0.95 0.93 0.95 0.93 0.95 0.91 0.90 0.90 0.87 0.75 0.75 0.77 0.84 0.87 0.88 0.88 0.86 0.88 0.88 0.75 0.60 0.66 0.50 0.63 0.78 0.78 0.82 0.90 0.95 0.95 0.95
0.84 0.91 0.98 1.04 1.09 1.13 1.17 1.29 1.38 1.43 1.50 1.57 1.64 1.63 1.60 1.56 1.54 1.48 1.44 1.41 1.42 1.42 1.43 1.43 1.36 1.37 1.34 1.29 1.27 1.24 1.20 1.17 1.25 1.29 1.36 1.36 1.33 1.34 1.34 1.35 1.34 1.35 1.19 1.07 1.05 1.07 1.09 1.09 1.10 1.10 1.06 1.06 1.01 0.97 0.93 0.92 0.90 0.90 0.89 0.89 0.88 0.87 0.85 0.78 0.75 0.78 0.67 0.67 0.78 0.76 0.77 0.81 0.84 0.83 0.85 0.73 0.67 0.55 0.54 0.73 0.81 0.82 0.83 0.87 0.90
0.87 0.92 0.97 1.02 1.07 1.18 1.29 1.36 1.45 1.50 1.56 1.53 1.64 1.59 1.61 1.64 1.57 1.51 1.46 1.46 1.44 1.46 1.44 1.44 1.43 1.40 1.34 1.29 1.25 1.28 1.26 1.27 1.32 1.35 1.30 1.31 1.28 1.29 1.27 1.25 1.25 1.21 1.16 1.12 1.13 1.13 1.14 1.11 1.09 1.05 1.02 0.99 0.98 0.95 0.94 0.90 0.87 0.84 0.83 0.82 0.81 0.83 0.84 0.85 0.79 0.75 0.75 0.70 0.70 0.72 0.74 0.75 0.77 0.80 0.81 0.83 0.71 0.63 0.57 0.58 0.59 0.72 0.76 0.78 0.83
0.90 0.96 1.00 1.05 1.12 1.25 1.33 1.37 1.44 1.47 1.47 1.57 1.62 1.58 1.57 1.57 1.58 1.49 1.46 1.48 1.49 1.47 1.45 1.44 1.44 1.41 1.33 1.29 1.24 1.24 1.28 1.29 1.30 1.27 1.26 1.28 1.24 1.23 1.22 1.20 1.16 1.14 1.15 1.15 1.14 1.13 1.11 1.09 1.06 1.01 0.98 0.96 0.93 0.91 0.90 0.87 0.85 0.85 0.84 0.82 0.83 0.81 0.85 0.84 0.81 0.80 0.80 0.81 0.79 0.76 0.71 0.72 0.71 0.70 0.74 0.75 0.75 0.76 0.64 0.62 0.67 0.64 0.55 0.63 0.78
0.86 0.93 1.01 1.10 1.21 1.29 1.35 1.38 1.42 1.47 1.47 1.54 1.48 1.52 1.61 1.53 1.52 1.52 1.53 1.53 1.52 1.48 1.45 1.42 1.43 1.39 1.33 1.30 1.25 1.24 1.26 1.26 1.24 1.24 1.24 1.24 1.21 1.20 1.19 1.16 1.14 1.10 1.08 1.08 1.07 1.06 1.05 1.04 0.99 0.95 0.95 0.93 0.89 0.87 0.83 0.82 0.83 0.85 0.85 0.84 0.83 0.82 0.81 0.81 0.81 0.82 0.82 0.81 0.80 0.80 0.77 0.76 0.72 0.68 0.70 0.74 0.75 0.71 0.68 0.66 0.70 0.73 0.71 0.64 0.72
0.89 0.93 1.00 1.10 1.16 1.26 1.33 1.34 1.40 1.38 1.42 1.42 1.39 1.43 1.40 1.49 1.50 1.52 1.54 1.53 1.52 1.51 1.49 1.45 1.43 1.40 1.37 1.33 1.28 1.27 1.25 1.24 1.22 1.21 1.23 1.20 1.18 1.16 1.13 1.07 1.03 1.01 1.00 0.99 0.99 1.00 0.99 0.95 0.94 0.91 0.89 0.86 0.82 0.82 0.82 0.81 0.82 0.83 0.83 0.81 0.81 0.81 0.82 0.80 0.80 0.78 0.80 0.79 0.79 0.81 0.80 0.81 0.81 0.79 0.80 0.80 0.76 0.74 0.73 0.70 0.69 0.75 0.73 0.74 0.80
0.91 0.93 0.99 1.05 1.10 1.16 1.22 1.28 1.32 1.32 1.30 1.33 1.35 1.35 1.39 1.51 1.49 1.45 1.44 1.49 1.49 1.53 1.49 1.46 1.42 1.38 1.35 1.32 1.29 1.29 1.27 1.26 1.22 1.21 1.22 1.15 1.11 1.07 1.01 0.94 0.93 0.91 0.94 0.91 0.94 0.95 0.90 0.86 0.85 0.83 0.80 0.80 0.79 0.80 0.81 0.81 0.79 0.80 0.78 0.78 0.79 0.78 0.79 0.80 0.78 0.79 0.79 0.77 0.77 0.80 0.80 0.79 0.79 0.83 0.84 0.81 0.81 0.80 0.77 0.68 0.72 0.80 0.71 0.70 0.76
0.94 0.95 0.98 1.04 1.08 1.18 1.25 1.27 1.32 1.31 1.29 1.28 1.33 1.33 1.31 1.39 1.41 1.43 1.43 1.48 1.49 1.49 1.47 1.42 1.38 1.36 1.34 1.32 1.29 1.26 1.21 1.21 1.22 1.18 1.16 1.12 1.06 0.98 0.93 0.91 0.90 0.89 0.89 0.93 0.94 0.88 0.83 0.80 0.78 0.76 0.76 0.77 0.77 0.78 0.79 0.79 0.79 0.78 0.78 0.77 0.77 0.79 0.80 0.79 0.78 0.79 0.79 0.80 0.81 0.76 0.76 0.76 0.77 0.81 0.82 0.81 0.77 0.75 0.72 0.71 0.71 0.73 0.75 0.70 0.75
0.98 0.98 1.01 1.06 1.13 1.21 1.25 1.29 1.32 1.31 1.27 1.25 1.28 1.31 1.27 1.32 1.34 1.37 1.41 1.45 1.45 1.44 1.42 1.37 1.33 1.31 1.30 1.28 1.25 1.22 1.20 1.21 1.19 1.15 1.11 1.03 0.98 0.94 0.92 0.93 0.91 0.90 0.92 0.94 0.89 0.82 0.78 0.76 0.75 0.75 0.76 0.76 0.76 0.77 0.78 0.78 0.77 0.77 0.78 0.78 0.78 0.78 0.77 0.77 0.77 0.75 0.74 0.74 0.76 0.76 0.75 0.76 0.77 0.81 0.82 0.81 0.82 0.79 0.78 0.77 0.73 0.64 0.63 0.69 0.67
0.96 0.98 1.04 1.13 1.21 1.27 1.30 1.30 1.30 1.26 1.23 1.21 1.25 1.33 1.30 1.31 1.37 1.40 1.39 1.41 1.43 1.39 1.35 1.32 1.28 1.27 1.26 1.22 1.21 1.22 1.22 1.21 1.16 1.12 1.06 1.01 0.97 0.95 0.93 0.94 0.92 0.92 0.94 0.89 0.85 0.80 0.75 0.74 0.76 0.77 0.76 0.76 0.77 0.77 0.77 0.76 0.77 0.76 0.75 0.76 0.75 0.79 0.76 0.76 0.75 0.76 0.76 0.77 0.76 0.78 0.76 0.76 0.80 0.81 0.82 0.83 0.83 0.84 0.82 0.81 0.77 0.72 0.64 0.57 0.64
0.88 0.94 1.05 1.15 1.20 1.24 1.27 1.26 1.26 1.20 1.20 1.22 1.28 1.35 1.34 1.32 1.36 1.39 1.40 1.40 1.39 1.37 1.32 1.30 1.27 1.23 1.20 1.20 1.21 1.20 1.19 1.14 1.08 1.02 0.99 0.98 0.97 0.96 0.94 0.93 0.94 0.95 0.91 0.87 0.81 0.77 0.77 0.77 0.77 0.76 0.76 0.78 0.78 0.77 0.78 0.78 0.78 0.77 0.76 0.75 0.74 0.77 0.77 0.76 0.76 0.76 0.77 0.78 0.78 0.78 0.77 0.78 0.79 0.82 0.82 0.82 0.83 0.84 0.84 0.84 0.83 0.77 0.74 0.64 0.59
0.94 1.04 1.09 1.09 1.12 1.14 1.20 1.22 1.17 1.17 1.22 1.25 1.31 1.37 1.37 1.34 1.36 1.34 1.33 1.31 1.33 1.33 1.31 1.28 1.24 1.22 1.20 1.19 1.18 1.17 1.14 1.10 1.06 0.98 0.95 0.95 0.95 0.94 0.93 0.92 0.92 0.92 0.88 0.83 0.78 0.77 0.78 0.78 0.76 0.76 0.77 0.77 0.77 0.77 0.78 0.78 0.77 0.76 0.78 0.77 0.78 0.79 0.76 0.77 0.78 0.78 0.78 0.79 0.79 0.79 0.79 0.76 0.77 0.77 0.76 0.78 0.78 0.78 0.78 0.78 0.79 0.80 0.81 0.70 0.67
1.00 1.02 1.05 1.07 1.09 1.11 1.16 1.14 1.18 1.21 1.30 1.35 1.34 1.35 1.35 1.36 1.38 1.36 1.29 1.28 1.28 1.28 1.27 1.25 1.24 1.22 1.20 1.17 1.15 1.12 1.10 1.06 1.01 0.97 0.94 0.92 0.91 0.91 0.93 0.95 0.93 0.89 0.83 0.79 0.77 0.78 0.78 0.76 0.75 0.76 0.77 0.78 0.78 0.77 0.77 0.76 0.77 0.76 0.77 0.76 0.79 0.79 0.77 0.76 0.78 0.78 0.79 0.79 0.77 0.76 0.76 0.73 0.72 0.71 0.70 0.72 0.73 0.75 0.75 0.76 0.77 0.80 0.80 0.79 0.74
0.95 1.00 1.03 1.06 1.10 1.14 1.17 1.12 1.12 1.18 1.28 1.35 1.33 1.34 1.33 1.36 1.37 1.34 1.30 1.27 1.24 1.21 1.21 1.19 1.21 1.22 1.19 1.16 1.12 1.08 1.04 0.99 0.96 0.93 0.91 0.89 0.90 0.91 0.92 0.91 0.88 0.87 0.84 0.81 0.79 0.77 0.76 0.75 0.76 0.76 0.75 0.76 0.75 0.75 0.75 0.76 0.77 0.76 0.76 0.77 0.78 0.78 0.76 0.73 0.75 0.78 0.78 0.78 0.75 0.72 0.69 0.67 0.66 0.65 0.64 0.64 0.65 0.67 0.69 0.69 0.71 0.73 0.75 0.79 0.79
0.94 0.96 0.99 1.03 1.07 1.10 1.10 1.13 1.20 1.26 1.33 1.34 1.30 1.29 1.32 1.34 1.32 1.30 1.24 1.22 1.19 1.20 1.20 1.20 1.20 1.17 1.13 1.07 1.03 1.00 0.97 0.96 0.94 0.93 0.92 0.92 0.92 0.92 0.90 0.88 0.88 0.84 0.83 0.81 0.79 0.78 0.77 0.77 0.76 0.75 0.74 0.73 0.73 0.73 0.75 0.75 0.75 0.76 0.77 0.76 0.76 0.76 0.73 0.73 0.75 0.75 0.76 0.75 0.73 0.68 0.65 0.64 0.63 0.58 0.58 0.58 0.59 0.62 0.65 0.67 0.68 0.68 0.68 0.70 0.71
0.91 0.96 0.99 1.03 1.06 1.07 1.09 1.18 1.23 1.26 1.31 1.29 1.27 1.26 1.28 1.30 1.32 1.30 1.26 1.22 1.20 1.21 1.21 1.18 1.16 1.12 1.07 1.03 1.00 0.98 0.96 0.95 0.93 0.93 0.92 0.93 0.93 0.92 0.90 0.87 0.85 0.84 0.83 0.80 0.80 0.82 0.81 0.79 0.77 0.74 0.73 0.72 0.72 0.72 0.74 0.75 0.74 0.74 0.74 0.74 0.72 0.70 0.69 0.70 0.72 0.70 0.70 0.72 0.70 0.64 0.60 0.59 0.60 0.56 0.55 0.54 0.54 0.55 0.57 0.59 0.60 0.62 0.63 0.65 0.71
0.91 0.96 1.01 1.02 1.03 1.05 1.08 1.11 1.17 1.22 1.23 1.21 1.20 1.19 1.25 1.30 1.30 1.27 1.22 1.21 1.22 1.21 1.19 1.16 1.12 1.09 1.05 1.03 1.01 0.98 0.97 0.95 0.94 0.94 0.92 0.93 0.94 0.92 0.89 0.86 0.86 0.87 0.90 0.89 0.88 0.85 0.82 0.79 0.76 0.74 0.72 0.71 0.71 0.71 0.73 0.73 0.73 0.72 0.71 0.69 0.69 0.69 0.69 0.68 0.66 0.64 0.66 0.67 0.64 0.59 0.55 0.55 0.55 0.53 0.50 0.49 0.49 0.48 0.51 0.53 0.55 0.58 0.59 0.61 0.65
0.96 1.03 1.03 1.02 1.05 1.09 1.09 1.08 1.12 1.17 1.16 1.14 1.15 1.18 1.24 1.27 1.26 1.23 1.20 1.20 1.20 1.18 1.15 1.13 1.10 1.07 1.06 1.04 1.01 1.00 0.98 0.96 0.94 0.93 0.92 0.93 0.92 0.92 0.94 0.91 0.90 0.94 0.95 0.97 0.96 0.92 0.87 0.83 0.78 0.73 0.72 0.71 0.71 0.71 0.71 0.72 0.71 0.70 0.69 0.67 0.68 0.68 0.69 0.67 0.63 0.62 0.62 0.63 0.60 0.54 0.52 0.52 0.52 0.48 0.46 0.46 0.46 0.47 0.48 0.49 0.50 0.52 0.55 0.57 0.62
0.95 0.97 0.97 1.01 1.03 1.01 1.00 1.04 1.09 1.11 1.14 1.16 1.16 1.17 1.22 1.22 1.21 1.18 1.18 1.18 1.17 1.15 1.12 1.10 1.08 1.05 1.04 1.04 1.04 1.03 1.00 0.98 0.96 0.96 0.94 0.94 0.94 0.93 0.92 0.90 0.93 0.94 0.96 0.95 0.94 0.93 0.90 0.85 0.80 0.77 0.74 0.72 0.70 0.69 0.69 0.69 0.69 0.68 0.68 0.68 0.68 0.67 0.65 0.62 0.60 0.59 0.59 0.57 0.55 0.52 0.52 0.51 0.48 0.43 0.43 0.43 0.45 0.46 0.49 0.51 0.51 0.53 0.53 0.55 0.58
0.92 0.95 0.96 0.97 0.98 0.99 1.01 1.05 1.10 1.13 1.15 1.17 1.16 1.18 1.20 1.19 1.17 1.17 1.16 1.15 1.13 1.13 1.10 1.07 1.06 1.03 1.02 1.02 1.03 1.03 1.02 1.00 0.99 0.98 0.96 0.95 0.93 0.91 0.91 0.94 0.95 0.93 0.92 0.92 0.90 0.89 0.87 0.83 0.81 0.78 0.75 0.72 0.71 0.69 0.67 0.67 0.66 0.67 0.67 0.67 0.66 0.64 0.62 0.60 0.57 0.56 0.56 0.55 0.53 0.52 0.51 0.49 0.44 0.42 0.42 0.43 0.45 0.45 0.48 0.50 0.51 0.53 0.56 0.58 0.59
0.92 0.95 0.98 1.00 1.01 1.00 1.04 1.09 1.12 1.13 1.15 1.12 1.10 1.13 1.16 1.16 1.14 1.15 1.15 1.14 1.11 1.09 1.07 1.05 1.04 1.03 1.02 1.02 1.03 1.03 1.02 1.01 1.01 0.99 0.99 0.99 0.97 0.95 0.96 0.95 0.96 0.95 0.93 0.92 0.91 0.89 0.87 0.82 0.79 0.76 0.72 0.70 0.68 0.67 0.66 0.66 0.66 0.66 0.65 0.65 0.63 0.62 0.61 0.58 0.53 0.50 0.50 0.50 0.50 0.49 0.47 0.44 0.43 0.42 0.42 0.43 0.44 0.45 0.48 0.49 0.52 0.54 0.56 0.57 0.58
1.00 0.99 0.97 0.96 0.99 1.01 1.06 1.12 1.12 1.13 1.13 1.11 1.10 1.11 1.10 1.08 1.08 1.11 1.15 1.17 1.14 1.08 1.05 1.03 1.03 1.03 1.02 1.01 1.02 1.02 1.03 1.03 1.02 1.01 1.01 0.99 0.98 0.98 0.98 0.97 0.98 0.95 0.93 0.89 0.86 0.85 0.84 0.81 0.78 0.74 0.71 0.69 0.67 0.65 0.65 0.65 0.65 0.64 0.64 0.62 0.61 0.58 0.58 0.55 0.49 0.46 0.45 0.45 0.44 0.44 0.42 0.41 0.42 0.42 0.43 0.44 0.45 0.45 0.47 0.48 0.52 0.55 0.56 0.58 0.56
0.95 0.96 0.97 0.97 0.98 0.99 1.02 1.07 1.11 1.10 1.05 1.05 1.07 1.09 1.08 1.09 1.11 1.11 1.11 1.11 1.10 1.04 1.03 1.04 1.04 1.02 1.01 1.01 1.01 1.02 1.03 1.02 1.00 1.00 0.98 0.97 0.98 0.98 0.97 0.96 0.95 0.93 0.91 0.87 0.84 0.81 0.79 0.77 0.74 0.70 0.67 0.65 0.63 0.63 0.63 0.64 0.63 0.63 0.63 0.60 0.58 0.56 0.53 0.48 0.43 0.40 0.40 0.40 0.39 0.39 0.39 0.39 0.40 0.41 0.42 0.43 0.45 0.48 0.48 0.47 0.50 0.53 0.55 0.57 0.57
0.92 0.94 0.96 0.98 0.99 1.00 1.03 1.07 1.07 1.06 1.06 1.08 1.10 1.10 1.09 1.08 1.09 1.13 1.14 1.11 1.07 1.06 1.07 1.06 1.04 1.02 1.02 1.00 0.99 0.99 1.00 1.01 1.00 0.98 0.97 0.98 0.97 0.96 0.95 0.93 0.92 0.91 0.88 0.84 0.80 0.76 0.73 0.71 0.67 0.64 0.63 0.61 0.60 0.61 0.62 0.62 0.62 0.60 0.58 0.56 0.53 0.50 0.47 0.42 0.37 0.35 0.34 0.35 0.35 0.35 0.36 0.36 0.37 0.38 0.38 0.39 0.41 0.44 0.47 0.49 0.50 0.52 0.54 0.56 0.55
0.96 0.98 0.98 0.99 1.01 1.01 1.01 1.00 1.00 1.01 1.06 1.09 1.11 1.11 1.10 1.10 1.10 1.10 1.06 1.06 1.09 1.09 1.09 1.07 1.06 1.05 1.03 1.00 0.97 0.96 0.98 0.97 0.96 0.96 0.97 0.96 0.95 0.94 0.92 0.91 0.89 0.87 0.83 0.80 0.77 0.72 0.67 0.64 0.62 0.60 0.59 0.59 0.59 0.59 0.58 0.58 0.58 0.57 0.53 0.49 0.46 0.44 0.43 0.37 0.32 0.30 0.29 0.30 0.31 0.32 0.32 0.33 0.33 0.34 0.35 0.37 0.39 0.40 0.42 0.44 0.47 0.50 0.53 0.55 0.52
0.95 0.97 0.97 0.95 1.00 1.03 1.03 1.00 1.00 1.03 1.05 1.07 1.09 1.08 1.08 1.05 1.06 1.06 1.06 1.09 1.08 1.06 1.02 1.02 1.02 0.98 0.97 0.96 0.95 0.95 0.95 0.94 0.93 0.93 0.93 0.93 0.92 0.89 0.87 0.86 0.84 0.81 0.79 0.76 0.72 0.68 0.63 0.58 0.57 0.57 0.56 0.55 0.54 0.55 0.55 0.56 0.55 0.53 0.50 0.46 0.44 0.41 0.39 0.34 0.29 0.27 0.28 0.28 0.28 0.29 0.30 0.31 0.32 0.33 0.34 0.35 0.37 0.39 0.41 0.43 0.44 0.46 0.48 0.52 0.55
0.97 0.95 0.95 0.96 0.97 0.98 0.98 0.97 0.99 1.02 1.05 1.07 1.09 1.08 1.04 1.04 1.06 1.06 1.06 1.06 1.07 1.05 1.02 0.96 0.94 0.93 0.93 0.94 0.95 0.95 0.94 0.93 0.92 0.92 0.92 0.90 0.88 0.86 0.84 0.81 0.78 0.77 0.75 0.69 0.65 0.61 0.55 0.53 0.52 0.51 0.51 0.51 0.51 0.52 0.53 0.54 0.53 0.50 0.47 0.44 0.40 0.39 0.36 0.31 0.27 0.26 0.26 0.26 0.27 0.27 0.28 0.29 0.30 0.31 0.31 0.33 0.34 0.36 0.38 0.40 0.42 0.43 0.45 0.47 0.49
1.00 0.99 0.98 0.99 0.99 0.98 0.98 0.98 1.00 1.03 1.04 1.06 1.08 1.10 1.09 1.10 1.09 1.06 1.05 1.04 1.01 1.00 0.97 0.94 0.93 0.92 0.93 0.93 0.94 0.93 0.91 0.90 0.91 0.90 0.89 0.87 0.84 0.81 0.79 0.77 0.74 0.71 0.67 0.62 0.57 0.51 0.50 0.48 0.46 0.46 0.47 0.48 0.49 0.51 0.52 0.53 0.50 0.46 0.43 0.40 0.37 0.36 0.33 0.30 0.28 0.26 0.26 0.26 0.26 0.26 0.26 0.26 0.28 0.29 0.30 0.31 0.33 0.34 0.36 0.38 0.39 0.41 0.41 0.43 0.46
0.89 0.90 0.90 0.90 0.91 0.93 0.95 0.97 0.99 1.01 1.02 1.03 1.05 1.08 1.09 1.12 1.09 1.05 1.06 1.02 1.00 0.98 0.94 0.92 0.90 0.89 0.91 0.91 0.90 0.89 0.88 0.88 0.88 0.87 0.85 0.83 0.81 0.79 0.76 0.73 0.70 0.66 0.61 0.55 0.49 0.45 0.43 0.42 0.42 0.43 0.45 0.47 0.48 0.50 0.52 0.50 0.45 0.42 0.41 0.39 0.37 0.35 0.32 0.30 0.29 0.28 0.26 0.26 0.26 0.27 0.27 0.27 0.27 0.28 0.30 0.30 0.31 0.33 0.35 0.36 0.38 0.40 0.41 0.42 0.43
0.84 0.83 0.85 0.86 0.87 0.90 0.92 0.95 1.01 1.02 1.04 1.07 1.04 1.06 1.08 1.10 1.11 1.07 1.04 1.00 0.98 0.94 0.91 0.90 0.88 0.87 0.88 0.90 0.89 0.88 0.87 0.87 0.86 0.84 0.82 0.80 0.78 0.74 0.69 0.68 0.65 0.63 0.60 0.54 0.48 0.42 0.38 0.38 0.39 0.41 0.43 0.45 0.47 0.48 0.48 0.44 0.40 0.40 0.39 0.37 0.37 0.34 0.31 0.30 0.29 0.28 0.27 0.27 0.27 0.27 0.27 0.26 0.27 0.28 0.29 0.30 0.31 0.33 0.33 0.34 0.35 0.38 0.40 0.42 0.43
0.89 0.89 0.87 0.91 0.94 0.95 0.98 1.01 1.02 1.04 1.06 1.06 1.05 1.07 1.06 1.06 1.04 0.99 0.96 0.95 0.94 0.91 0.89 0.87 0.86 0.85 0.86 0.86 0.85 0.84 0.84 0.82 0.81 0.79 0.76 0.73 0.71 0.68 0.66 0.65 0.61 0.58 0.54 0.47 0.42 0.40 0.38 0.37 0.37 0.38 0.39 0.41 0.43 0.44 0.44 0.41 0.40 0.39 0.35 0.33 0.33 0.33 0.31 0.28 0.26 0.27 0.27 0.27 0.27 0.27 0.27 0.26 0.27 0.27 0.29 0.29 0.31 0.32 0.31 0.32 0.33 0.34 0.38 0.40 0.41
0.90 0.94 0.94 0.93 0.97 1.00 1.01 1.01 1.00 1.02 1.04 1.04 1.04 1.03 1.01 0.98 0.94 0.93 0.91 0.90 0.89 0.88 0.87 0.86 0.85 0.86 0.85 0.85 0.84 0.82 0.80 0.78 0.77 0.73 0.70 0.68 0.67 0.64 0.62 0.60 0.54 0.50 0.45 0.42 0.40 0.38 0.38 0.37 0.35 0.34 0.34 0.35 0.38 0.40 0.40 0.38 0.36 0.35 0.32 0.29 0.28 0.26 0.25 0.24 0.23 0.24 0.25 0.25 0.26 0.26 0.27 0.27 0.26 0.26 0.28 0.29 0.30 0.31 0.30 0.30 0.31 0.31 0.33 0.35 0.39
0.92 0.94 0.92 0.91 0.93 0.96 0.98 0.99 0.99 0.98 1.00 1.01 1.00 0.97 0.92 0.90 0.91 0.91 0.89 0.87 0.86 0.87 0.86 0.85 0.85 0.85 0.85 0.83 0.81 0.79 0.76 0.74 0.71 0.69 0.67 0.63 0.58 0.52 0.49 0.48 0.44 0.41 0.40 0.40 0.39 0.37 0.36 0.35 0.34 0.31 0.29 0.28 0.29 0.31 0.32 0.31 0.32 0.31 0.29 0.27 0.25 0.23 0.21 0.21 0.22 0.23 0.24 0.25 0.25 0.26 0.26 0.26 0.26 0.26 0.27 0.28 0.29 0.30 0.30 0.30 0.30 0.30 0.30 0.32 0.35
0.91 0.94 0.95 0.96 0.99 0.98 0.95 0.95 0.94 0.95 0.98 0.97 0.95 0.91 0.87 0.85 0.86 0.87 0.84 0.82 0.82 0.84 0.85 0.85 0.83 0.81 0.80 0.78 0.77 0.75 0.74 0.72 0.69 0.67 0.65 0.62 0.58 0.54 0.52 0.49 0.47 0.45 0.44 0.43 0.42 0.40 0.36 0.32 0.31 0.29 0.27 0.24 0.22 0.23 0.25 0.26 0.27 0.27 0.26 0.25 0.24 0.21 0.22 0.22 0.23 0.24 0.23 0.24 0.25 0.26 0.26 0.26 0.26 0.26 0.26 0.26 0.27 0.28 0.29 0.29 0.30 0.29 0.29 0.30 0.35
0.86 0.90 0.95 0.95 0.96 0.96 0.95 0.95 0.96 0.96 0.94 0.92 0.89 0.85 0.82 0.81 0.81 0.79 0.77 0.79 0.82 0.82 0.81 0.78 0.76 0.76 0.75 0.74 0.74 0.73 0.70 0.69 0.67 0.63 0.61 0.61 0.61 0.60 0.58 0.56 0.53 0.51 0.48 0.43 0.38 0.34 0.33 0.32 0.31 0.28 0.25 0.24 0.23 0.21 0.22 0.23 0.23 0.24 0.24 0.23 0.23 0.23 0.24 0.24 0.24 0.24 0.24 0.24 0.24 0.25 0.26 0.26 0.26 0.25 0.26 0.26 0.26 0.26 0.26 0.28 0.29 0.28 0.30 0.33 0.35
0.94 0.95 0.93 0.92 0.93 0.93 0.93 0.94 0.95 0.94 0.91 0.89 0.86 0.81 0.79 0.78 0.78 0.77 0.78 0.81 0.79 0.77 0.74 0.73 0.72 0.71 0.71 0.71 0.71 0.71 0.70 0.67 0.65 0.64 0.64 0.65 0.66 0.65 0.62 0.58 0.52 0.45 0.40 0.36 0.35 0.33 0.31 0.29 0.29 0.27 0.25 0.24 0.24 0.24 0.23 0.23 0.23 0.23 0.24 0.24 0.24 0.24 0.25 0.25 0.24 0.24 0.24 0.23 0.24 0.24 0.25 0.26 0.25 0.25 0.25 0.25 0.25 0.26 0.26 0.26 0.27 0.29 0.29 0.31 0.33
0.86 0.89 0.93 0.92 0.89 0.89 0.90 0.92 0.93 0.92 0.89 0.88 0.85 0.81 0.79 0.79 0.77 0.77 0.78 0.76 0.74 0.73 0.72 0.72 0.71 0.70 0.70 0.70 0.69 0.69 0.67 0.67 0.66 0.67 0.66 0.64 0.63 0.58 0.51 0.46 0.41 0.38 0.36 0.33 0.32 0.31 0.28 0.26 0.26 0.26 0.26 0.24 0.24 0.23 0.22 0.22 0.22 0.23 0.24 0.24 0.25 0.25 0.25 0.26 0.24 0.22 0.23 0.23 0.24 0.24 0.25 0.25 0.25 0.24 0.24 0.25 0.24 0.24 0.25 0.25 0.25 0.26 0.27 0.29 0.31
0.90 0.92 0.90 0.91 0.90 0.91 0.90 0.91 0.92 0.90 0.89 0.87 0.84 0.81 0.79 0.77 0.74 0.74 0.73 0.73 0.72 0.72 0.72 0.70 0.69 0.69 0.69 0.68 0.68 0.68 0.68 0.68 0.67 0.66 0.63 0.57 0.51 0.44 0.39 0.37 0.35 0.33 0.31 0.29 0.28 0.28 0.26 0.24 0.23 0.24 0.25 0.24 0.22 0.22 0.22 0.22 0.22 0.22 0.23 0.24 0.24 0.25 0.25 0.25 0.25 0.24 0.24 0.24 0.24 0.24 0.24 0.25 0.24 0.24 0.23 0.23 0.24 0.23 0.23 0.24 0.25 0.24 0.25 0.27 0.29
0.84 0.85 0.89 0.90 0.89 0.88 0.88 0.89 0.89 0.87 0.87 0.86 0.84 0.79 0.75 0.71 0.71 0.72 0.71 0.71 0.71 0.71 0.70 0.68 0.67 0.67 0.66 0.67 0.67 0.67 0.66 0.65 0.62 0.56 0.48 0.44 0.41 0.40 0.36 0.36 0.34 0.32 0.30 0.28 0.26 0.24 0.21 0.20 0.20 0.18 0.18 0.19 0.19 0.20 0.21 0.22 0.22 0.21 0.22 0.23 0.24 0.24 0.24 0.24 0.23 0.24 0.24 0.24 0.25 0.25 0.24 0.23 0.24 0.24 0.23 0.22 0.22 0.22 0.22 0.22 0.24 0.24 0.24 0.24 0.26
0.85 0.85 0.87 0.89 0.89 0.88 0.87 0.85 0.85 0.86 0.86 0.85 0.82 0.78 0.72 0.71 0.71 0.71 0.71 0.71 0.70 0.69 0.67 0.66 0.65 0.66 0.66 0.67 0.65 0.63 0.60 0.57 0.53 0.51 0.48 0.45 0.41 0.38 0.36 0.36 0.35 0.33 0.31 0.29 0.26 0.23 0.21 0.19 0.17 0.16 0.15 0.14 0.15 0.16 0.18 0.20 0.20 0.20 0.21 0.22 0.23 0.23 0.23 0.23 0.23 0.23 0.23 0.24 0.24 0.25 0.24 0.23 0.24 0.24 0.23 0.23 0.22 0.22 0.22 0.22 0.23 0.24 0.24 0.23 0.24
0.81 0.84 0.87 0.87 0.86 0.82 0.82 0.82 0.81 0.83 0.84 0.83 0.80 0.78 0.74 0.72 0.70 0.71 0.71 0.70 0.68 0.66 0.65 0.64 0.65 0.66 0.65 0.63 0.59 0.56 0.54 0.52 0.51 0.47 0.44 0.41 0.39 0.36 0.34 0.33 0.32 0.31 0.30 0.28 0.25 0.23 0.21 0.20 0.16 0.15 0.13 0.12 0.13 0.14 0.15 0.16 0.18 0.19 0.20 0.22 0.22 0.22 0.22 0.22 0.22 0.22 0.22 0.23 0.24 0.24 0.24 0.23 0.23 0.24 0.23 0.23 0.23 0.22 0.21 0.21 0.21 0.22 0.23 0.23 0.23
0.86 0.87 0.88 0.87 0.84 0.81 0.81 0.81 0.80 0.83 0.82 0.81 0.78 0.76 0.73 0.72 0.71 0.71 0.69 0.68 0.66 0.66 0.65 0.65 0.65 0.63 0.60 0.57 0.53 0.50 0.48 0.45 0.43 0.41 0.38 0.36 0.35 0.34 0.32 0.31 0.31 0.30 0.27 0.26 0.25 0.24 0.21 0.20 0.17 0.16 0.14 0.12 0.12 0.13 0.14 0.15 0.17 0.19 0.19 0.21 0.21 0.21 0.21 0.21 0.21 0.21 0.22 0.23 0.24 0.24 0.22 0.21 0.21 0.21 0.22 0.21 0.21 0.22 0.21 0.20 0.20 0.21 0.22 0.22 0.22
0.83 0.85 0.86 0.84 0.83 0.83 0.83 0.82 0.82 0.83 0.81 0.78 0.76 0.74 0.72 0.70 0.70 0.70 0.69 0.68 0.67 0.67 0.66 0.63 0.60 0.58 0.55 0.53 0.50 0.47 0.44 0.42 0.40 0.38 0.37 0.36 0.33 0.32 0.31 0.31 0.33 0.33 0.31 0.29 0.26 0.24 0.23 0.21 0.20 0.16 0.12 0.11 0.11 0.12 0.14 0.18 0.19 0.20 0.20 0.19 0.19 0.20 0.20 0.20 0.21 0.23 0.22 0.21 0.21 0.21 0.20 0.19 0.18 0.18 0.19 0.20 0.19 0.19 0.20 0.19 0.19 0.20 0.20 0.20 0.20
0.87 0.88 0.86 0.84 0.85 0.84 0.83 0.82 0.82 0.80 0.77 0.75 0.72 0.71 0.70 0.71 0.72 0.72 0.71 0.69 0.67 0.65 0.62 0.58 0.57 0.55 0.53 0.50 0.47 0.44 0.42 0.40 0.38 0.35 0.33 0.33 0.34 0.34 0.33 0.30 0.29 0.30 0.31 0.31 0.30 0.26 0.24 0.23 0.19 0.15 0.13 0.11 0.11 0.14 0.17 0.18 0.19 0.20 0.20 0.20 0.20 0.21 0.21 0.21 0.22 0.22 0.22 0.20 0.19 0.18 0.19 0.18 0.18 0.16 0.16 0.18 0.18 0.17 0.18 0.18 0.17 0.19 0.20 0.19 0.19
0.84 0.84 0.83 0.83 0.83 0.83 0.83 0.81 0.80 0.78 0.75 0.72 0.70 0.71 0.71 0.72 0.73 0.74 0.72 0.69 0.66 0.61 0.59 0.56 0.55 0.53 0.50 0.46 0.43 0.41 0.39 0.37 0.36 0.33 0.32 0.29 0.28 0.31 0.32 0.31 0.30 0.27 0.25 0.23 0.24 0.24 0.21 0.16 0.12 0.11 0.13 0.14 0.15 0.16 0.18 0.18 0.19 0.19 0.20 0.20 0.21 0.21 0.21 0.21 0.22 0.20 0.19 0.19 0.18 0.17 0.17 0.17 0.18 0.17 0.16 0.16 0.17 0.17 0.17 0.18 0.16 0.17 0.18 0.19 0.19
Wind_Speed
18 19 20 21 21 20 20 21 20 20 20 20 20 20 20 18 17 17 17 16 16 14 14 14 13 12 12 11 11 11 11 10 10 10 10 9 9 9 9 9 9 9 8 7 7 7 7 6 5 5 6 7 7 8 9 10 10 11 11 12 12 12 12 12 12 12 13 13 14 14 14 14 14 14 13 13 13 13 13 14 14 13 13 13 14
17 18 19 19 20 21 21 21 22 21 20 20 20 20 19 18 17 17 16 16 15 14 14 14 13 13 12 12 11 11 11 10 10 10 10 9 9 9 9 9 9 9 8 8 7 8 7 6 5 5 6 7 8 8 9 10 10 11 11 12 12 12 12 12 12 12 13 13 14 14 14 14 13 12 12 13 14 14 14 14 14 14 14 14 14
18 18 18 19 20 21 22 21 22 22 20 20 20 20 19 18 17 17 16 15 15 15 15 14 13 12 12 12 11 11 10 10 10 10 10 9 9 9 9 9 9 8 9 8 8 7 7 6 5 6 7 7 8 9 9 10 10 11 11 12 12 12 12 12 12 12 13 13 14 14 14 14 13 12 14 16 15 14 14 15 15 15 15 15 15
19 18 18 18 19 21 22 21 22 22 20 20 20 19 19 19 18 17 16 16 15 15 14 14 13 12 11 11 11 10 10 10 10 10 10 10 10 10 9 9 8 8 7 7 7 7 7 6 6 7 8 8 8 9 9 10 11 11 11 12 12 12 12 12 12 13 13 14 14 14 14 13 13 14 16 17 15 14 15 16 16 16 16 16 16
19 19 18 18 19 20 21 21 22 23 22 21 20 20 20 19 18 17 17 16 15 15 14 14 13 12 11 11 10 10 9 9 9 9 10 10 10 10 9 8 8 7 6 6 6 6 6 6 7 8 8 8 8 9 10 10 11 11 11 11 12 12 13 13 13 13 14 14 14 14 14 14 14 16 17 16 15 16 17 16 16 17 17 17 17
19 19 19 18 18 19 20 21 22 23 23 22 20 21 21 19 18 17 17 16 15 15 14 14 13 12 12 11 10 10 9 9 9 9 9 10 10 9 9 7 7 7 6 6 6 6 6 7 8 8 8 8 8 9 10 10 11 11 11 12 12 13 13 14 14 15 15 15 15 15 15 15 16 17 17 16 17 18 17 17 18 18 18 18 18
18 18 18 18 18 19 20 21 22 22 23 23 21 21 21 18 17 17 16 16 15 15 14 14 13 12 12 11 10 10 9 9 9 8 9 9 9 9 8 7 7 7 6 6 6 7 7 8 8 8 8 9 9 9 10 10 10 11 12 12 13 13 13 14 15 16 16 16 16 16 17 17 18 18 18 18 18 18 18 19 20 19 19 20 20
18 18 18 18 18 18 20 20 21 22 22 23 21 19 18 17 16 16 16 15 14 14 14 14 13 12 12 11 10 10 10 9 9 9 8 8 8 8 8 7 7 7 7 7 7 8 8 8 8 9 9 9 9 10 10 10 11 11 12 13 13 13 14 15 16 16 17 18 18 19 19 19 19 19 19 19 19 19 20 20 21 21 21 21 21
17 18 17 18 18 18 18 18 20 21 20 20 18 16 16 15 14 15 15 15 14 14 14 13 13 12 12 11 11 10 10 9 9 9 9 8 8 8 7 8 8 7 7 7 8 8 8 8 9 9 9 10 10 10 10 11 11 12 13 13 14 14 15 16 16 17 18 19 19 20 20 20 20 20 20 21 21 21 21 21 22 23 23 22 22
17 18 18 18 18 18 17 18 19 19 18 17 15 14 14 14 14 14 14 14 14 14 13 13 13 12 12 11 11 10 9 9 9 9 8 8 8 8 8 8 8 7 7 7 8 8 8 9 9 10 10 10 10 10 11 11 12 13 13 14 14 15 15 16 17 17 18 19 19 20 21 21 21 21 22 22 22 22 22 22 23 23 23 23 23
17 18 18 17 17 17 17 18 19 18 18 17 15 14 14 14 13 13 14 14 14 14 13 13 12 12 12 11 11 10 10 9 9 9 8 8 8 7 7 7 7 7 7 7 8 8 8 9 9 10 10 10 10 10 11 12 12 13 14 14 15 15 16 16 17 18 18 19 20 20 21 22 22 22 23 24 23 23 24 24 24 24 24 24 24
17 18 18 16 17 18 18 19 19 18 18 17 15 14 14 13 13 13 13 14 14 13 13 13 12 12 11 11 11 10 9 9 9 9 8 8 7 6 6 7 6 7 7 8 8 8 9 9 9 10 10 10 11 11 12 12 13 13 14 15 16 16 17 17 18 18 19 20 21 21 22 22 23 23 24 24 24 25 25 25 25 25 25 24 25
16 18 18 17 18 18 18 19 19 18 18 17 16 14 14 14 14 14 14 14 13 13 14 13 12 11 11 10 10 9 9 9 9 8 8 8 7 7 7 7 7 7 8 8 8 8 9 9 9 10 10 10 11 11 12 13 13 14 14 15 16 17 17 18 18 19 20 21 21 22 22 23 24 24 25 25 25 26 26 26 26 26 25 25 25
16 17 18 18 18 18 18 19 19 18 17 16 16 15 15 15 14 14 14 13 13 13 13 13 12 11 10 10 10 9 9 9 8 8 9 8 8 7 7 7 7 7 8 8 8 8 9 9 9 9 9 10 10 11 12 12 13 13 14 15 16 17 18 18 19 20 21 21 22 23 24 24 25 25 26 26 26 26 26 27 27 27 26 26 26
16 17 18 18 18 18 18 18 18 18 17 16 16 16 16 15 14 14 14 13 13 13 13 13 12 10 10 9 10 10 9 9 9 9 9 8 8 8 7 8 8 8 8 8 8 9 9 8 8 9 9 10 10 11 12 12 13 14 14 15 16 17 18 18 19 20 21 22 23 24 25 25 26 26 26 26 27 27 27 27 27 27 27 26 25
16 17 17 17 17 18 18 18 18 17 17 17 17 16 17 16 15 14 14 13 13 12 12 12 11 10 10 9 10 10 10 10 9 9 9 8 8 8 8 8 8 9 9 9 9 9 8 8 9 9 9 10 11 11 12 13 14 14 15 15 16 17 18 19 20 21 22 23 24 25 25 26 27 27 27 27 27 27 27 27 28 28 28 28 26
17 16 16 17 17 17 17 17 17 17 16 16 16 16 16 16 15 14 13 13 13 13 12 12 11 10 10 10 10 10 10 10 9 9 8 8 8 8 8 9 9 9 9 9 9 9 9 9 9 9 10 10 11 12 13 13 14 14 15 16 17 17 19 20 21 22 23 24 25 26 26 27 28 28 28 28 27 27 27 28 28 28 29 29 28
16 15 16 16 16 16 16 16 16 16 15 15 16 16 16 16 15 15 14 13 13 13 12 12 11 11 10 10 10 10 10 10 10 9 9 9 9 9 9 9 9 9 9 10 10 9 9 9 10 10 11 11 12 12 13 14 14 15 16 16 17 18 20 21 22 23 25 26 26 26 27 28 28 28 28 28 27 27 28 28 28 28 28 28 28
14 15 15 16 16 15 15 15 15 15 16 15 15 16 16 15 16 15 14 13 12 12 12 11 11 11 11 11 11 11 11 10 10 10 10 9 9 9 9 9 9 9 9 10 10 10 10 10 10 11 11 11 12 13 14 14 15 15 16 17 18 19 20 22 23 24 25 26 27 27 28 28 29 29 28 28 28 28 28 28 28 28 28 28 28
15 15 15 15 16 15 15 15 15 15 16 16 15 15 15 15 16 15 13 13 12 11 11 11 11 11 11 11 11 11 11 10 10 10 10 10 10 9 9 9 10 10 10 10 10 10 10 11 11 11 12 12 13 13 14 15 15 16 17 18 19 20 21 23 24 25 26 27 27 28 29 29 29 28 28 28 27 27 27 27 27 27 27 28 28
15 15 15 15 15 15 15 15 15 15 16 16 15 15 15 15 15 14 13 13 12 11 11 11 11 11 11 11 11 11 11 11 10 10 10 10 10 10 10 10 10 10 11 11 11 11 11 11 11 12 12 13 13 14 15 15 16 17 18 19 20 21 22 24 25 26 27 28 28 29 29 29 29 28 28 28 27 27 27 27 27 28 28 28 28
15 15 16 16 15 15 15 14 15 16 16 15 15 15 15 14 14 14 13 12 12 11 11 11 11 11 11 11 11 11 11 10 10 10 10 10 10 11 11 11 11 11 11 11 11 11 11 12 12 12 13 13 14 15 15 16 17 18 19 20 21 22 24 25 26 27 28 28 28 28 28 29 28 28 28 28 28 28 28 28 28 28 28 29 29
16 16 16 16 15 16 15 15 16 16 15 15 15 15 15 14 13 13 13 12 12 11 11 10 10 11 11 11 10 10 11 11 11 11 11 11 11 11 11 11 12 12 11 11 11 12 12 12 12 13 14 14 14 15 16 17 17 18 19 21 22 23 24 25 26 27 28 28 28 28 28 28 29 28 28 28 28 28 28 29 29 29 29 29 29
16 17 17 16 16 16 16 16 16 16 15 15 15 15 15 14 13 13 12 12 11 11 10 10 10 11 11 11 11 11 11 11 11 11 11 11 12 11 12 12 12 11 11 12 12 12 13 13 13 14 14 15 15 16 16 17 18 19 20 21 22 23 24 25 26 27 27 27 27 27 27 28 29 28 28 28 28 29 28 28 29 29 29 30 29
17 17 17 17 17 17 17 17 16 15 15 15 15 15 14 13 13 13 12 12 11 10 10 10 10 11 11 11 11 11 11 11 12 12 11 12 12 12 12 12 11 11 10 11 11 12 13 13 13 14 14 15 15 16 16 17 18 20 21 22 22 23 24 25 26 27 27 27 26 27 27 28 28 28 28 29 29 29 29 29 29 29 29 29 29
18 18 17 17 18 18 17 17 17 15 15 15 14 14 14 13 12 12 12 11 11 10 10 10 11 11 11 12 12 12 13 13 13 12 12 12 12 12 11 11 11 10 10 11 12 12 12 13 13 13 14 15 15 16 17 18 19 20 21 22 22 23 24 25 26 26 26 26 26 26 27 27 28 28 28 29 29 29 29 29 29 29 29 29 30
19 18 17 18 18 18 18 18 17 16 16 15 14 14 14 13 12 12 12 12 11 11 10 11 11 11 12 12 12 12 12 13 12 12 12 12 11 11 10 10 10 10 11 11 12 12 12 12 13 13 14 15 16 17 18 19 19 20 21 22 22 23 24 24 25 25 25 25 25 26 26 27 27 28 29 29 29 29 29 29 29 30 30 30 30
19 18 18 18 18 18 18 19 18 17 16 15 14 14 13 13 12 12 12 12 12 11 11 11 11 11 11 11 11 11 11 12 11 11 11 11 10 10 10 10 10 10 11 12 12 12 12 13 13 14 15 15 16 17 18 19 19 20 21 21 22 23 23 24 24 25 24 24 25 25 26 27 28 28 29 29 29 29 29 29 29 30 30 30 30
19 19 19 18 19 18 18 19 18 17 16 15 14 14 13 13 13 12 12 12 12 12 12 12 12 12 11 11 11 11 11 11 10 10 10 9 9 9 9 9 10 10 11 12 12 12 12 13 14 14 15 16 17 17 18 19 19 20 20 21 22 22 22 23 23 24 23 24 24 25 26 27 28 28 29 29 29 30 30 30 30 30 30 31 31
19 19 19 19 19 19 19 19 18 17 17 15 15 14 14 13 13 13 13 13 13 13 12 13 13 12 12 12 12 11 10 10 10 9 9 8 9 9 9 10 10 11 12 12 12 12 13 13 14 15 16 16 17 17 18 18 19 19 20 21 21 21 21 21 22 22 23 23 24 25 26 27 28 28 29 29 30 30 30 30 31 31 31 31 32
19 19 19 19 19 19 19 19 18 18 17 16 15 15 14 14 13 13 13 13 13 13 13 12 13 13 13 12 12 11 10 10 10 9 9 9 9 10 10 10 10 11 11 11 11 12 13 14 14 15 16 16 17 17 18 18 18 19 19 19 19 19 19 21 21 22 22 23 24 25 26 27 27 28 29 29 30 30 30 31 31 31 32 32 33
19 19 19 19 19 19 19 19 18 18 18 17 17 16 15 14 14 14 14 13 13 13 12 12 13 13 12 12 11 11 10 10 10 9 9 10 10 10 10 10 10 10 10 11 11 12 13 14 14 15 15 16 16 16 17 17 17 18 18 18 18 18 19 20 21 21 22 23 24 25 26 26 27 28 29 29 29 30 30 30 30 31 31 32 33
19 19 19 19 19 19 19 19 18 18 18 18 18 17 16 16 15 14 14 13 13 12 12 12 12 12 11 11 10 10 10 10 10 9 9 10 9 9 9 9 9 10 10 11 12 12 13 14 14 14 15 15 15 16 16 16 17 18 17 17 17 17 18 19 20 21 22 23 24 25 25 26 27 28 28 29 29 29 29 29 30 30 31 32 32
20 20 20 20 20 20 19 19 19 18 17 17 17 17 17 17 16 14 14 13 12 12 12 11 11 11 10 10 9 9 9 9 9 9 9 9 8 8 8 9 9 10 10 11 12 12 12 13 13 13 14 14 14 15 16 16 16 16 15 16 16 17 18 19 20 21 22 23 24 24 25 26 27 27 28 29 29 29 29 29 29 30 30 31 31
20 20 19 19 20 20 19 19 19 18 17 17 17 17 17 16 16 15 14 13 12 12 11 11 11 11 10 10 10 9 9 8 8 8 8 8 8 8 8 9 9 10 10 11 11 11 11 12 12 13 13 12 13 14 15 15 15 15 15 15 16 17 18 19 19 21 21 22 23 24 25 26 26 27 28 29 29 29 29 29 29 29 30 30 30
20 20 19 19 20 20 19 19 18 18 17 17 16 16 16 16 15 15 15 13 12 11 10 10 11 11 10 10 9 8 8 8 8 8 8 8 8 8 9 9 9 10 10 10 10 11 11 11 11 11 11 11 12 13 13 13 13 14 14 15 15 17 18 18 19 20 21 22 23 24 25 26 26 27 29 29 29 29 29 29 29 29 29 29 30
20 20 20 20 19 19 19 18 18 17 17 16 16 15 15 15 15 15 14 13 12 10 10 10 10 10 9 9 8 8 8 8 8 8 8 8 9 9 10 10 10 9 9 9 10 10 10 10 9 10 10 11 11 12 12 12 12 13 13 13 14 15 17 18 19 20 21 22 23 24 25 26 27 27 28 29 29 29 28 28 28 28 28 29 30
19 19 20 20 19 19 18 18 17 17 16 16 15 15 14 15 15 14 13 12 11 11 11 10 10 9 9 9 8 8 8 9 8 8 8 9 9 10 10 10 9 8 8 9 9 9 8 8 9 9 10 10 10 11 11 11 12 12 12 13 14 15 16 17 18 20 21 22 23 25 26 26 26 27 28 29 29 28 27 27 28 28 28 29 30
19 20 20 20 19 19 19 18 18 17 16 16 15 15 14 15 15 14 12 11 11 11 11 10 10 9 9 9 9 9 9 8 8 9 9 9 8 8 7 7 7 7 8 8 8 8 7 8 8 8 8 9 9 10 11 11 11 12 12 13 14 15 16 17 19 20 21 22 23 24 26 26 27 27 28 28 28 27 26 26 27 28 28 29 30
19 20 20 20 20 20 19 19 18 17 17 16 16 15 14 14 14 14 13 11 11 11 11 10 9 9 9 9 9 9 8 9 9 9 8 8 7 7 6 7 7 7 7 7 7 6 6 6 7 7 8 8 8 9 10 11 11 12 13 13 14 15 16 18 19 21 22 23 23 24 25 26 27 27 27 27 27 26 26 26 27 28 28 29 30
19 20 20 21 21 20 20 19 18 18 17 17 16 15 14 14 13 13 13 12 12 11 10 10 9 9 9 9 9 8 8 8 8 8 7 7 7 7 7 7 7 7 6 5 5 5 5 5 6 7 7 8 8 9 10 11 11 12 13 14 15 16 17 18 19 21 22 23 24 24 25 26 26 26 26 26 25 25 26 26 26 28 28 28 29
19 20 21 21 20 20 19 19 18 18 17 17 16 15 14 13 13 13 13 12 12 11 11 10 10 9 8 8 8 8 8 8 7 7 6 6 6 6 6 6 6 5 5 4 4 5 5 5 6 7 7 8 9 10 10 11 12 13 14 15 15 16 17 18 19 21 22 22 23 23 24 25 25 25 24 24 24 25 25 25 26 27 28 28 29
20 21 21 21 20 20 20 19 19 18 17 17 16 15 14 14 13 13 13 12 12 11 11 10 10 9 8 8 8 7 7 7 6 6 6 6 6 6 6 5 5 4 4 4 5 5 5 5 6 7 8 9 9 10 11 11 12 13 14 15 16 17 17 18 19 21 22 22 22 23 23 23 24 23 23 23 24 24 24 25 26 27 28 27 28
22 21 21 21 20 20 20 19 19 18 18 17 16 15 14 14 13 13 13 12 12 12 11 10 10 9 9 8 8 7 7 7 6 6 6 6 6 5 5 4 4 4 4 4 4 5 5 6 7 8 8 9 10 10 11 12 13 14 14 15 16 17 18 18 19 20 21 21 21 22 22 22 22 22 22 22 23 24 24 24 25 26 27 27 27
23 22 21 21 21 20 20 19 19 18 18 17 17 16 15 14 14 14 13 13 12 12 11 10 10 9 9 8 8 7 7 6 6 6 6 5 5 5 4 4 4 4 4 4 4 5 5 6 7 8 9 10 10 11 11 12 13 14 15 15 16 17 18 18 19 19 20 20 20 21 21 21 21 21 21 21 22 23 23 24 24 25 26 26 27
23 22 22 21 20 20 20 19 19 19 18 18 17 16 15 14 14 14 14 13 13 12 11 10 10 9 9 8 7 7 7 6 6 6 6 6 5 5 5 5 5 5 4 4 5 5 6 7 7 8 9 10 10 11 11 12 13 13 14 15 16 17 18 18 18 19 19 19 20 20 20 19 19 19 20 20 21 22 23 23 23 24 25 25 26
23 23 22 22 21 20 20 19 19 18 18 18 17 16 15 15 14 14 14 14 13 12 11 10 10 9 9 8 7 7 6 6 6 6 6 6 5 5 4 4 4 4 4 5 5 6 6 7 7 8 9 9 10 11 11 11 12 13 14 15 15 16 17 18 18 18 18 18 18 19 19 18 18 18 19 20 20 21 22 22 22 23 24 25 26
23 23 23 22 21 20 20 19 19 19 19 18 17 16 15 15 15 15 15 14 13 12 11 10 10 9 8 8 7 7 7 6 6 6 6 5 5 5 4 4 4 5 5 5 6 6 7 7 7 8 9 9 10 11 11 11 12 13 14 14 15 16 16 17 17 17 17 17 17 18 18 18 17 18 18 19 20 20 21 22 22 22 23 24 25
23 23 23 22 21 21 20 20 20 19 19 18 17 16 16 16 16 15 15 14 13 12 11 11 10 9 9 8 8 7 7 7 7 6 6 5 5 5 5 5 5 6 6 6 6 7 7 8 8 8 9 9 10 10 11 11 12 13 13 14 15 15 16 16 16 16 16 16 16 16 17 17 17 17 18 18 19 20 20 21 22 22 23 24 24
23 23 22 22 22 21 21 20 20 19 18 17 17 16 16 16 16 16 15 14 13 12 12 11 10 10 9 9 9 8 8 8 8 7 7 6 5 5 5 6 6 6 7 7 7 8 8 8 9 9 9 9 10 10 11 11 12 13 14 14 15 15 15 15 15 15 15 15 15 16 16 16 16 17 17 18 18 19 20 21 21 22 22 23 24
23 23 23 22 22 22 21 21 21 20 18 17 17 16 16 16 16 16 15 14 13 13 12 12 11 10 10 10 9 9 9 9 8 8 8 7 6 5 5 6 6 7 7 7 7 7 8 8 8 9 9 9 10 10 11 12 12 13 14 14 15 15 15 14 14 14 14 14 15 15 15 15 15 16 17 17 18 18 19 19 21 21 22 22 23
Wind_Direction
235 235 234 232 228 227 228 225 221 220 221 223 221 215 208 200 196 198 201 202 204 206 207 208 212 216 220 223 225 228 233 235 237 240 242 245 248 250 251 254 257 263 274 274 268 273 279 287 292 298 307 310 311 311 310 311 312 314 314 315 316 318 318 319 320 319 320 321 321 320 321 322 321 320 319 316 314 313 314 313 312 311 311 311 310
233 234 234 231 228 226 226 224 220 217 219 221 219 215 211 204 201 201 203 204 206 207 208 210 215 219 222 225 228 231 234 236 237 240 243 246 249 252 254 257 260 263 268 266 269 279 283 287 296 306 311 311 310 311 312 313 314 315 316 316 316 316 317 318 320 320 319 320 321 322 323 324 325 324 323 320 314 312 312 312 311 310 309 309 308
230 232 233 230 227 223 219 219 216 214 216 219 219 217 212 207 205 205 204 205 207 208 209 213 218 222 226 229 230 234 237 238 240 240 242 247 252 255 256 256 257 260 264 264 267 275 282 291 304 314 316 313 310 310 313 314 314 316 317 318 317 317 317 318 320 320 319 320 321 323 323 324 324 323 322 321 317 313 312 311 310 308 307 306 305
227 229 229 225 223 221 217 215 212 211 213 215 216 215 211 209 207 205 204 205 207 209 211 214 218 224 229 232 233 236 238 239 241 242 242 246 251 255 255 253 253 258 261 261 264 272 282 298 310 316 317 313 312 312 313 314 316 318 319 319 319 319 319 318 320 321 321 322 322 321 321 321 321 319 320 320 318 316 314 312 309 307 305 304 303
224 225 226 224 223 220 216 213 212 212 213 214 214 214 213 211 207 204 204 207 208 210 212 215 218 222 227 231 235 235 237 238 239 240 243 245 247 249 250 251 251 253 257 261 268 273 284 303 311 311 313 312 312 313 313 314 316 318 318 319 319 319 319 318 319 321 321 322 322 320 320 319 317 318 319 317 315 316 315 312 311 310 307 305 303
222 223 225 225 225 221 215 213 213 213 214 217 218 216 214 211 205 204 207 209 211 212 215 218 220 222 224 226 230 230 233 237 236 237 241 243 243 244 246 248 248 249 254 260 264 272 289 304 307 305 307 309 310 312 314 315 316 317 317 317 318 318 318 318 318 319 320 320 321 320 318 316 316 317 317 314 313 314 313 312 312 311 309 307 304
224 224 224 224 224 222 218 216 215 214 216 219 219 216 213 208 205 206 209 213 214 215 219 221 222 224 223 225 228 228 229 235 237 237 238 239 239 241 244 245 246 245 249 258 266 278 292 300 302 302 303 303 305 309 312 313 314 315 315 316 317 316 318 318 317 318 319 319 319 318 316 315 314 315 314 313 312 312 311 312 311 310 309 308 306
224 223 223 222 222 221 218 216 215 216 217 217 216 213 210 207 207 209 213 216 217 218 221 223 225 225 223 226 230 230 231 233 235 236 236 236 234 237 242 245 244 241 248 261 272 285 293 296 298 300 300 300 302 305 308 310 310 312 313 314 315 316 317 317 316 317 318 317 317 317 316 315 314 313 312 312 311 310 310 310 310 310 309 307 306
221 220 221 220 220 219 215 213 215 216 217 216 214 211 211 211 210 211 215 217 218 220 222 224 226 226 225 227 229 232 234 234 233 234 233 232 231 231 237 239 238 242 255 266 276 287 293 295 297 298 298 299 300 301 304 306 308 310 312 313 314 314 315 316 316 316 316 317 317 317 316 316 315 314 313 313 311 309 309 309 309 309 308 307 306
220 218 218 219 218 216 213 213 215 217 218 219 217 214 216 216 213 212 216 219 221 222 223 224 225 225 225 226 229 230 233 234 232 230 229 229 228 227 229 233 238 249 261 271 279 286 290 293 295 296 297 299 300 301 302 305 307 309 311 313 314 315 315 315 316 316 316 317 317 317 316 316 315 314 313 314 311 308 308 308 308 309 308 306 306
220 217 217 218 215 213 212 213 215 216 217 218 219 220 221 218 214 215 220 222 224 224 223 222 223 225 226 228 230 230 230 231 229 227 227 224 221 221 224 231 242 254 265 274 281 285 288 291 293 295 297 299 301 303 305 307 308 308 310 312 314 315 315 315 315 316 316 316 317 317 316 315 314 313 312 313 311 309 308 307 307 308 306 305 305
221 217 216 216 214 213 213 213 215 215 215 217 220 222 221 217 212 214 220 221 222 222 220 220 222 225 229 230 231 230 228 228 226 225 222 214 214 220 223 230 243 257 267 274 280 284 287 289 291 294 297 299 302 304 307 309 309 308 310 311 313 314 315 315 315 316 316 316 316 316 315 315 314 313 312 312 310 309 308 307 307 307 306 304 305
221 217 215 215 214 214 213 213 215 216 216 219 221 220 217 214 211 212 216 217 217 218 217 217 220 224 227 228 228 227 223 221 218 214 210 210 217 222 224 233 247 258 268 274 280 286 286 287 290 294 297 300 303 306 307 309 309 309 309 311 313 315 315 316 316 316 317 317 317 316 316 315 314 314 313 312 310 309 307 306 306 306 305 304 304
218 215 213 214 213 213 212 211 214 217 217 218 219 218 214 211 211 212 212 212 213 214 214 214 218 222 223 223 222 218 213 210 208 206 208 215 221 224 230 241 251 260 268 276 283 287 288 290 293 295 299 303 306 307 308 310 311 310 311 312 314 315 315 316 316 316 317 317 316 316 316 316 315 314 313 312 311 309 308 306 305 304 304 303 303
214 213 212 211 210 209 209 210 213 216 216 216 218 218 214 211 213 211 209 210 210 211 211 212 215 217 217 217 215 212 210 208 209 213 216 219 223 229 237 246 254 263 271 278 282 285 289 292 294 297 300 304 307 307 308 310 310 310 311 312 313 314 315 316 317 318 318 318 317 317 316 316 316 314 313 312 311 310 308 308 306 305 303 303 303
211 210 207 205 204 205 206 208 211 214 216 217 218 218 213 211 212 209 208 208 207 207 207 207 210 212 212 213 213 213 212 212 215 220 222 224 231 237 244 251 259 267 273 277 281 284 288 291 293 297 300 303 305 306 307 308 310 310 311 312 313 315 316 318 319 319 320 319 319 318 317 317 317 315 313 311 310 309 308 308 307 305 304 304 303
206 205 203 202 202 203 204 205 210 215 217 215 214 214 210 208 206 202 200 200 201 203 202 204 207 208 210 212 214 214 213 215 221 226 229 233 239 246 253 258 264 268 272 276 279 282 287 290 293 296 300 302 304 305 307 309 310 311 313 314 315 316 318 319 320 320 320 320 319 319 319 319 319 318 316 313 311 309 308 307 307 305 305 304 302
202 200 199 202 204 206 206 208 212 213 210 209 208 206 204 202 198 194 194 195 197 200 201 204 208 210 213 214 215 218 219 223 228 232 237 240 247 255 260 263 266 268 271 274 277 281 286 290 294 297 300 302 305 307 308 310 311 312 314 316 316 317 318 319 320 321 321 321 320 320 320 319 319 318 316 315 312 310 309 308 306 305 304 303 302
199 197 198 202 204 207 207 209 211 207 203 203 201 196 196 196 194 193 195 195 196 200 204 209 213 216 219 219 220 224 227 231 233 237 242 245 252 258 261 264 266 267 269 271 275 280 286 291 295 298 299 301 304 306 308 309 311 312 314 315 316 317 319 320 320 321 321 321 320 320 320 319 318 317 315 314 313 311 309 308 307 306 304 303 302
198 197 199 201 204 206 205 205 205 201 199 199 194 192 192 192 192 193 194 196 197 202 208 213 217 220 222 223 225 228 230 232 235 239 243 248 253 256 258 262 264 265 269 274 278 282 287 291 294 295 297 300 303 306 308 308 310 312 313 315 317 318 319 319 320 320 320 320 320 320 319 318 318 317 316 315 313 311 309 308 307 305 304 303 302
197 198 200 202 204 205 204 202 199 194 194 195 193 192 191 189 191 193 194 197 200 205 211 216 219 220 221 223 225 227 229 232 235 239 244 249 253 254 257 261 264 268 272 277 282 286 289 291 292 294 297 300 302 304 306 308 309 312 313 314 316 317 318 318 319 320 320 320 320 320 319 319 319 319 318 317 315 314 311 309 307 306 304 303 303
199 199 201 204 205 205 203 198 194 191 190 191 191 192 191 190 192 195 198 202 205 210 215 218 218 218 218 221 224 228 232 234 238 243 248 252 256 259 260 263 268 272 274 278 283 287 288 289 292 295 297 299 301 303 304 306 309 311 313 314 315 316 317 318 319 320 320 320 320 321 320 320 321 320 319 318 317 315 313 311 310 308 306 305 303
201 200 202 205 204 203 201 196 194 194 191 191 191 191 191 191 194 198 202 207 211 215 217 218 217 218 220 224 228 232 235 239 244 248 252 256 260 263 264 265 269 271 275 280 283 284 286 289 292 295 296 298 300 302 303 305 307 310 312 314 315 316 318 319 319 320 320 320 321 322 321 321 321 320 319 319 318 317 315 313 312 311 309 307 305
202 201 203 205 204 203 202 198 196 197 194 193 194 192 191 193 196 201 206 210 215 217 218 219 220 222 226 230 234 237 239 244 249 252 256 259 261 264 266 267 269 272 277 281 281 283 286 290 292 294 297 299 299 300 302 304 306 309 311 314 315 317 318 319 319 320 321 321 322 322 321 321 322 321 320 320 319 318 317 315 314 312 311 309 307
201 202 205 205 204 203 203 200 198 196 193 193 195 194 192 194 199 203 208 213 216 218 219 223 225 228 232 236 239 242 244 248 253 256 258 260 262 264 266 268 269 273 277 279 281 286 289 290 291 294 297 299 299 300 301 303 306 309 311 313 314 316 318 318 320 321 322 322 322 322 322 322 323 322 321 321 320 319 318 316 315 314 312 311 308
200 202 204 205 204 204 203 200 197 195 192 192 194 195 195 198 203 208 212 215 218 221 223 226 229 232 235 241 245 247 248 251 254 257 260 262 263 263 265 268 271 273 275 278 284 289 290 291 293 295 297 299 300 300 301 304 307 309 311 313 315 316 318 319 322 323 323 322 323 323 323 323 323 323 322 322 321 320 318 317 316 315 314 312 310
201 204 205 205 205 204 201 197 195 195 194 194 196 198 199 202 206 211 217 220 221 224 227 230 233 236 239 244 248 249 250 252 254 257 259 261 261 261 264 269 271 272 275 280 286 288 289 292 294 296 298 299 300 301 303 306 308 310 312 313 315 317 319 321 324 325 325 324 324 324 324 325 325 324 323 322 321 320 318 318 317 316 315 313 311
203 205 205 204 203 202 200 198 197 197 198 199 200 201 203 206 210 216 222 223 223 226 230 232 234 237 240 243 247 252 253 252 253 256 258 258 257 260 266 266 265 268 275 283 287 288 290 293 296 298 299 300 302 303 305 307 308 310 312 314 316 318 320 323 325 327 327 327 327 327 327 327 327 326 325 324 322 321 320 319 318 317 316 314 312
203 205 204 202 201 201 201 200 199 200 201 202 203 204 208 211 214 218 223 225 226 229 231 233 235 238 239 241 246 253 253 250 251 255 256 256 256 258 262 263 264 269 277 284 288 289 292 295 296 298 300 301 303 305 307 308 309 311 313 316 318 320 322 325 327 329 330 330 330 330 331 331 331 330 328 326 324 323 321 320 319 319 317 315 313
203 203 203 202 201 201 202 201 203 205 205 206 208 210 212 215 217 220 222 224 227 229 230 232 236 240 240 241 245 248 249 248 250 252 252 253 255 256 259 264 268 274 280 284 288 291 293 295 296 298 300 302 304 306 309 310 311 312 315 318 320 322 324 327 330 331 332 332 332 332 333 334 334 333 332 330 328 326 324 322 320 320 319 317 316
202 203 203 203 202 203 204 204 207 209 209 209 212 214 215 217 219 220 221 224 228 230 231 233 236 239 240 241 243 245 247 248 248 248 249 252 255 256 260 267 272 277 282 285 287 291 293 296 297 299 301 303 304 307 310 312 314 316 319 320 322 324 327 331 333 333 333 334 334 334 335 335 336 336 336 334 333 331 329 327 324 323 321 320 319
203 202 202 202 202 205 207 208 209 209 210 212 215 216 218 220 221 222 223 225 229 230 231 233 236 238 239 241 243 244 247 247 246 247 251 254 258 260 263 268 273 278 283 286 289 293 295 298 299 299 301 304 306 309 312 313 317 320 321 323 324 326 329 333 334 335 334 334 335 336 337 337 338 338 337 336 335 335 334 333 331 329 327 324 322
204 203 203 203 205 207 209 208 208 209 211 214 216 218 220 220 221 222 222 223 226 227 227 229 232 235 237 240 242 243 245 246 246 248 252 255 259 262 266 270 274 278 282 287 292 296 299 300 300 301 303 305 307 311 313 315 319 321 323 325 326 328 330 333 335 336 336 337 337 338 339 339 338 338 338 337 337 337 336 335 334 334 332 331 328
207 205 205 207 209 209 208 207 208 210 212 214 217 218 218 217 219 221 220 220 221 221 223 225 228 232 236 237 238 239 241 242 243 246 251 255 260 266 272 276 278 280 284 290 295 299 300 301 302 302 303 306 309 312 314 317 320 322 324 327 329 330 331 332 335 337 338 340 340 340 340 339 339 339 339 338 338 338 337 336 335 335 335 335 335
206 206 207 208 207 205 204 205 206 208 210 213 217 218 216 217 219 218 217 215 215 217 222 226 228 231 234 236 236 236 237 238 242 246 251 257 261 267 274 277 279 283 287 292 296 299 300 301 302 303 303 306 311 315 317 319 322 324 325 327 328 330 332 333 336 338 340 341 341 341 340 340 340 341 342 341 339 339 339 338 337 337 338 338 339
205 204 205 205 202 200 200 203 206 208 209 212 215 219 218 215 212 211 211 212 213 217 220 223 226 229 231 233 234 234 235 239 244 247 250 255 259 265 271 275 279 284 289 292 294 297 300 302 304 305 306 308 313 318 320 321 324 326 326 327 328 330 333 336 337 339 340 341 341 341 341 341 341 342 343 343 341 341 341 341 341 341 341 342 342
204 203 201 200 200 199 199 203 205 206 208 210 214 220 217 208 204 206 208 208 211 216 219 220 225 227 228 232 234 235 238 241 244 246 250 255 260 266 271 275 279 284 288 290 292 295 299 303 307 309 311 312 315 318 320 321 324 327 328 330 333 334 336 338 339 340 340 341 342 342 343 343 343 343 345 346 344 343 344 345 345 345 345 344 344
201 200 199 197 197 198 199 200 201 203 207 208 211 214 209 202 203 206 207 209 214 219 219 219 224 227 230 236 239 240 242 243 244 248 253 260 265 269 272 274 277 281 284 286 289 292 297 303 310 315 316 316 316 318 322 324 327 330 333 335 337 338 339 340 341 341 341 342 343 344 345 345 345 345 346 347 347 346 347 348 349 349 348 348 347
199 199 198 195 196 197 199 200 201 202 205 207 208 207 202 201 204 207 210 215 217 218 218 222 228 232 236 239 238 239 241 241 245 252 258 262 266 269 271 272 276 280 283 285 286 289 297 306 313 319 321 323 323 324 328 331 333 335 337 337 338 340 341 341 342 342 342 343 344 345 346 346 347 347 347 348 349 350 351 352 352 352 352 351 351
199 197 196 195 197 198 199 200 201 200 201 203 204 204 202 203 206 210 214 217 216 216 221 227 231 232 234 234 233 236 240 243 249 255 258 261 263 265 267 272 277 281 282 284 287 291 301 311 316 319 321 325 328 331 334 337 338 339 340 339 339 340 341 341 342 342 342 343 344 345 346 347 348 349 349 349 351 353 354 354 355 355 354 354 354
197 195 195 196 198 199 199 199 200 198 197 199 199 200 200 203 207 211 215 218 218 220 224 226 227 227 228 230 233 237 242 247 251 253 254 257 260 263 268 272 274 275 275 277 284 293 303 311 316 320 323 326 329 332 335 339 341 341 341 339 338 339 340 341 342 342 343 343 345 345 346 348 349 350 350 352 354 356 357 357 358 358 357 357 359
196 195 195 196 198 199 198 198 198 197 197 197 196 197 199 202 206 210 215 217 218 219 222 223 224 226 226 229 233 238 242 245 246 246 247 250 254 261 267 268 266 265 265 268 280 292 300 307 314 320 324 327 328 330 332 335 337 339 339 338 338 339 340 341 342 342 343 344 345 346 347 348 350 351 352 355 357 358 359 360 0 1 1 1 2
195 195 195 195 195 196 196 196 197 198 198 196 194 196 199 202 205 209 213 214 214 215 218 219 221 222 224 227 231 234 236 237 237 239 242 245 251 258 261 260 258 259 263 270 281 291 297 304 311 317 322 325 327 329 332 332 334 337 337 337 338 340 340 342 343 343 343 345 346 347 346 348 351 353 355 357 359 360 0 2 3 4 4 4 5
195 195 194 193 192 193 194 196 197 197 196 196 195 196 199 203 206 209 211 211 212 213 215 216 217 219 220 224 227 229 230 232 234 238 241 242 246 252 253 254 255 257 264 272 280 289 297 304 311 316 322 326 325 326 329 332 334 336 337 337 339 341 342 342 343 343 345 346 347 347 347 350 353 356 357 359 1 1 1 3 4 6 6 7 8
196 196 194 192 191 192 193 195 196 196 195 197 198 199 202 205 208 210 210 210 211 212 214 215 216 217 219 222 224 224 227 231 235 238 238 239 243 246 247 249 251 254 261 269 277 286 296 303 310 316 321 324 324 324 326 330 333 335 336 337 339 341 342 343 343 345 346 348 348 348 349 352 356 358 360 1 2 2 3 4 6 7 8 9 9
197 196 194 192 192 192 193 194 195 196 197 199 202 205 207 209 211 211 210 210 211 212 214 215 215 217 218 218 219 222 228 235 239 241 244 246 246 244 243 246 252 257 262 267 274 283 293 301 309 316 320 322 324 325 326 328 331 333 334 336 338 340 342 343 345 346 348 349 348 349 351 354 357 0 2 2 2 3 4 5 7 8 9 10 11
197 196 194 194 194 194 194 194 196 198 199 201 206 210 212 212 212 211 211 211 212 212 213 213 213 214 215 215 218 225 231 237 241 244 246 246 241 235 236 244 253 258 261 266 273 280 290 300 309 315 319 322 324 325 326 328 330 333 334 335 337 339 341 343 346 348 349 348 348 349 352 355 358 2 3 3 4 5 6 7 8 9 10 12 12
196 195 195 196 195 194 194 195 197 200 201 204 209 212 213 212 212 212 211 211 211 211 211 211 212 212 214 217 222 226 228 230 233 235 235 233 229 227 230 240 252 257 258 264 272 279 289 300 309 313 315 319 322 324 326 328 330 332 334 335 336 338 340 343 346 348 348 348 349 351 353 356 360 2 3 4 5 7 8 8 9 10 12 13 14
195 195 196 196 196 195 196 198 200 202 205 208 211 213 213 213 212 212 211 211 211 211 211 211 211 212 214 219 223 224 224 223 222 221 220 220 222 227 233 243 256 263 264 266 273 282 291 300 308 310 311 315 319 321 324 327 329 331 332 334 336 337 340 343 345 347 348 349 351 353 355 358 1 2 3 5 6 7 9 10 10 12 13 14 15
194 195 196 196 197 197 198 199 201 203 206 208 210 212 212 212 211 212 212 212 211 211 211 211 211 213 217 220 222 222 221 221 219 216 213 213 221 236 245 250 259 267 271 272 275 283 291 298 304 307 309 313 316 319 322 325 328 330 332 333 334 336 339 343 345 347 350 351 353 355 357 360 2 3 4 5 6 7 9 11 11 12 13 14 16
194 195 196 197 197 198 198 199 200 203 206 208 209 210 211 211 212 213 213 212 211 210 210 211 213 215 218 220 220 221 222 223 223 220 216 215 222 238 253 260 265 272 278 280 281 285 292 298 302 305 309 312 314 317 321 324 327 330 331 333 335 337 340 343 346 348 351 353 354 358 360 1 2 4 5 6 7 7 9 10 11 12 13 14 16